AirNav   Air Wisconsin pilot careers
 
 613 users online  

6MD6 Um Charles Regional Medical Center Heliport
La Plata, Maryland, USA


FAA INFORMATION EFFECTIVE 04 JANUARY 2018

Location

FAA Identifier: 6MD6
Lat/Long: 38-31-42.6300N / 076-58-15.5200W
38-31.710500N / 076-58.258667W
38.5285083 / -76.9709778
(estimated)
Elevation: 168 ft. / 51 m (estimated)
Time zone: UTC -5 (UTC -4 during Daylight Saving Time)
Zip code: 20646

Heliport Operations

Heliport use: Private use, MEDICAL USE.
Activation date: 03/2007
Control tower: no
ARTCC: WASHINGTON CENTER
FSS: LEESBURG FLIGHT SERVICE STATION
Attendance: UNATNDD
Wind indicator: yes
Segmented circle: no
Lights: ACTVT PERIMETER LGTS - 123.05.

Heliport Communications

WX ASOS at DCA (20 nm N): 132.65 (703-412-8140)

Nearby radio navigation aids

VOR radial/distance  VOR name  Freq  Var
OTTr235/15.0NOTTINGHAM VORTAC113.7010W
ADWr206/17.4ANDREWS VORTAC113.1010W
DCAr180/20.1WASHINGTON VOR/DME111.0009W
BRVr066/21.3BROOKE VORTAC114.5009W
PXTr308/30.5PATUXENT VORTAC117.6010W
AMLr144/33.6ARMEL VOR/DME113.5008W

 
NDB name  Hdg/Dist  Freq  Var  ID
DAVEE150/10.322309WDAA -.. .- .-
OXONN180/14.533211WDCA -.. -.-. .-
GEORGETOWN172/25.132309WGTN --. - -.
SHANNON065/27.523710WEZF . --.. ..-.
PATUXENT309/30.440010WNHK -. .... -.-

Heliport Services

Runway Information

Helipad H1

Dimensions: 42 x 42 ft. / 13 x 13 m
Surface: concrete
Runway edge lights: PERI
Latitude: 38-31.710500N
Longitude: 076-58.258667W
Elevation: 168.0 ft.
Traffic pattern: leftleft

Heliport Ownership and Management from official FAA records

Ownership: Privately-owned
Owner: UM CHARLES REGIONAL MEDICAL CENTER
701 E. CHARLES ST.
LA PLATA, MD 20646
Phone 301-609-4000
Manager: LAURI CRESS
701 E. CHARLES ST.
LA PLATA, MD 20646
Phone 301-609-4453
DIRECTOR OF FACILITIES.

Instrument Procedures

There are no published instrument procedures at 6MD6.

Some nearby airports with instrument procedures:

2W5 - Maryland Airport (6 nm NW)
KVKX - Potomac Airfield (13 nm N)
W32 - Washington Executive Airport/Hyde Field (13 nm N)
KDAA - Davison Army Airfield (15 nm NW)
KNYG - Quantico Marine Corps Airfield / Turner Field (16 nm W)
KADW - Joint Base Andrews (18 nm N)
KDCA - Ronald Reagan Washington National Airport (20 nm N)
 
Loc | Ops | Rwys | IFR | FBO | Links
Com | Nav | Svcs | Stats | Notes


 
Area around 6MD6 (Um Charles Regional Medical Center Heliport)
 
Road maps at: MapQuest Bing Google
 
Aerial photo
No photo
 
Sectional chart

 
Airport distance calculator
Flying to Um Charles Regional Medical Center Heliport? Find the distance to fly.

From to 6MD6

Sunrise and sunset
Times for 20-Jan-2018
 Local
(UTC-5)
 Zulu
(UTC)
Morning civil twilight06:5411:54
Sunrise07:2312:23
Sunset17:1522:15
Evening civil twilight17:4422:44

Current date and time
Zulu (UTC)  21-Jan-2018 04:43:41
Local (UTC-5)  20-Jan-2018 23:43:41
 
METAR
KVKX 
13nm N 
SuperAWOS
210415Z AUTO 00000KT 10SM M02/M03 A3009
KDAA 
15nm NW 
210356Z AUTO 00000KT 10SM CLR 00/M03 M RMK AO2 SLPNO T10021031 $
KADW 
18nm N 
210356Z AUTO 00000KT 10SM CLR 01/M03 A3009 RMK AO2 SLP198 T00061033
KDCA 
20nm N 
210352Z 18003KT 10SM FEW250 04/01 A3011 RMK AO2 SLP194 T00440006
K2W6 
24nm SE 
210417Z AUTO 23003KT 10SM CLR 05/00 A3011 RMK AO1
KRMN 
24nm W 
210415Z AUTO 00000KT 10SM CLR 02/00 A3015 RMK AO2 T00190000
TAF
KADW 
18nm N 
210100Z 2101/2207 VRB06KT 9999 SKC QNH3004INS BECMG 2108/2109 VRB06KT 9999 SCT010 QNH3013INS BECMG 2111/2112 20009KT 8000 BR FEW006 BKN010 QNH3013INS BECMG 2120/2121 18009KT 9999 NSW BKN030 QNH3012INS TX07/2118Z TNM01/2112Z
KDCA 
20nm N 
202101Z 2021/2124 23009KT P6SM FEW250 FM210500 VRB03KT P6SM FEW250 FM211000 00000KT P6SM BKN050
NOTAMs
Click for the latest NOTAMs
NOTAMs are issued by the DoD/FAA and will open in a separate window not controlled by AirNav.

 

 
 

Would you like to see your business listed on this page?

 If your business provides an interesting product or service to pilots, flight crews, aircraft, or users of the Um Charles Regional Medical Center Heliport, you should consider listing it here.  To start the listing process, click on the button below
 
Add a business
 

Other Pages about Um Charles Regional Medical Center Heliport

Update a link
 
Copyright © AirNav, LLC. All rights reserved. Privacy Policy  Contact